Change the Weather History Date:

Tuesday, March 4, 2014

  Actual Average Record
Temperature  
Mean Temperature 32 °F -  
Max Temperature 37 °F 59 °F 80 °F (1955)
Min Temperature 26 °F 40 °F 21 °F (2009)
Degree Days  
Heating Degree Days 34    
Growing Degree Days 0 (Base 50)    
Moisture  
Dew Point 26 °F    
Average Humidity 77    
Maximum Humidity 93    
Minimum Humidity 65    
Precipitation  
Precipitation 0.08 in - - ()
Sea Level Pressure  
Sea Level Pressure 30.19 in    
Wind  
Wind Speed 16 mph (North)    
Max Wind Speed 21 mph    
Max Gust Speed 26 mph    
Visibility 10 miles    
Events      
Averages and records for this station are not official NWS values.
T = Trace of Precipitation, MM = Missing Value Source: NWS Daily Summary

Daily Weather History Graph

Daily Weather History Graph

Search for Another Location

Airport or City:

Trip Planner

Search our weather history database for the weather conditions in past years. The results will help you decide how hot, cold, wet, or windy it might be!

Date:

Astronomy

Mar. 04, 2014 Rise Set
Actual Time 6:40 AM EST 6:14 PM EST
Civil Twilight 6:15 AM EST 6:39 PM EST
Nautical Twilight 5:46 AM EST 7:08 PM EST
Astronomical Twilight 5:17 AM EST 7:37 PM EST
Moon 8:37 AM EST (3/4) 10:06 PM EST (3/4)
Length of Visible Light 12h 24m
Length of Day
11h 34m
Waxing Crescent, 14% of the Moon is Illuminated
Mar 4
Waxing Crescent
Mar 8
First Quarter
Mar 16
Full
Mar 23
Last Quarter
Mar 30
New

Hourly Weather History & Observations

Time (EST) Temp. Windchill Dew Point Humidity Pressure Visibility Wind Dir Wind Speed Gust Speed Precip Events Conditions
12:15 AM 33.8 °F 22.8 °F 30.2 °F 87% 30.14 in 10.0 mi North 18.4 mph - N/A   Overcast
12:35 AM 33.8 °F 23.5 °F 30.2 °F 87% 30.14 in 10.0 mi North 16.1 mph 20.7 mph N/A   Overcast
12:55 AM 33.8 °F 22.8 °F 28.4 °F 81% 30.15 in 10.0 mi North 18.4 mph - N/A   Overcast
1:15 AM 32.0 °F 20.1 °F 28.4 °F 87% 30.16 in 10.0 mi North 19.6 mph 23.0 mph N/A   Overcast
1:35 AM 30.2 °F 18.5 °F 28.4 °F 93% 30.16 in 10.0 mi North 17.3 mph 26.5 mph N/A   Overcast
1:55 AM 30.2 °F 19.3 °F 26.6 °F 86% 30.16 in 10.0 mi North 15.0 mph - N/A   Overcast
2:15 AM 30.2 °F 18.9 °F 26.6 °F 86% 30.16 in 10.0 mi North 16.1 mph - N/A   Overcast
2:35 AM 30.2 °F 19.8 °F 26.6 °F 86% 30.16 in 10.0 mi North 13.8 mph - N/A   Overcast
2:55 AM 30.2 °F 17.4 °F 26.6 °F 86% 30.15 in 10.0 mi North 20.7 mph 25.3 mph N/A   Overcast
3:15 AM 30.2 °F 20.2 °F 26.6 °F 86% 30.16 in 10.0 mi NNE 12.7 mph - N/A   Overcast
3:35 AM 30.2 °F 18.9 °F 24.8 °F 80% 30.15 in 10.0 mi NNE 16.1 mph - N/A   Overcast
3:55 AM 30.2 °F 18.1 °F 24.8 °F 80% 30.16 in 10.0 mi North 18.4 mph 23.0 mph N/A   Overcast
4:15 AM 30.2 °F 19.3 °F 24.8 °F 80% 30.17 in 10.0 mi North 15.0 mph 21.9 mph N/A   Overcast
4:35 AM 30.2 °F 19.3 °F 24.8 °F 80% 30.19 in 10.0 mi North 15.0 mph - N/A   Overcast
4:55 AM 30.2 °F 20.2 °F 24.8 °F 80% 30.20 in 10.0 mi North 12.7 mph - N/A   Overcast
5:15 AM 28.4 °F 16.6 °F 24.8 °F 86% 30.20 in 10.0 mi North 16.1 mph - N/A   Overcast
5:35 AM 28.4 °F 17.0 °F 24.8 °F 86% 30.20 in 10.0 mi North 15.0 mph 21.9 mph N/A   Overcast
5:45 AM 28.4 °F 17.5 °F 24.8 °F 86% 30.21 in 10.0 mi North 13.8 mph 20.7 mph N/A   Overcast
6:45 AM 26.6 °F 13.8 °F 21.2 °F 80% 30.22 in 10.0 mi North 17.3 mph - N/A   Overcast
7:45 AM 26.6 °F 14.7 °F 21.2 °F 80% 30.24 in 10.0 mi NNE 15.0 mph - N/A   Overcast
8:45 AM 28.4 °F 16.6 °F 21.2 °F 74% 30.26 in 10.0 mi NNE 16.1 mph - N/A   Overcast
10:47 AM 28.4 °F 17.5 °F 19.4 °F 69% 30.28 in 8.0 mi North 13.8 mph - N/A   Overcast
11:45 AM 30.2 °F 20.2 °F 21.2 °F 69% 30.25 in 7.0 mi North 12.7 mph - N/A   Overcast
12:52 PM 32.0 °F 20.8 °F 23.0 °F 69% 30.23 in 7.0 mi North 17.3 mph - N/A   Overcast
1:45 PM 33.8 °F 23.9 °F 23.0 °F 65% 30.22 in 10.0 mi NNE 15.0 mph - N/A   Overcast
2:45 PM 33.8 °F 23.2 °F 23.0 °F 65% 30.19 in 10.0 mi North 17.3 mph - N/A   Overcast
3:45 PM 35.6 °F 25.5 °F 26.6 °F 70% 30.18 in 10.0 mi North 17.3 mph - N/A   Overcast
4:47 PM 35.6 °F 27.5 °F 26.6 °F 70% 30.19 in 7.0 mi North 11.5 mph - N/A   Overcast
5:45 PM 35.6 °F 27.5 °F 26.6 °F 70% 30.19 in 8.0 mi North 11.5 mph - N/A   Overcast
6:45 PM 35.6 °F 27.5 °F 26.6 °F 70% 30.21 in 10.0 mi North 11.5 mph - N/A   Overcast
7:45 PM 35.6 °F 26.6 °F 26.6 °F 70% 30.21 in 10.0 mi North 13.8 mph - N/A   Overcast
8:45 PM 37.4 °F 29.8 °F 28.4 °F 70% 30.20 in 10.0 mi North 11.5 mph - N/A   Overcast
9:45 PM 37.4 °F 29.8 °F 28.4 °F 70% 30.21 in 10.0 mi North 11.5 mph - N/A   Overcast
10:55 PM 37.4 °F 29.8 °F 28.4 °F 70% 30.19 in 10.0 mi North 11.5 mph - N/A   Mostly Cloudy
11:15 PM 37.4 °F 30.3 °F 28.4 °F 70% 30.18 in 10.0 mi North 10.4 mph - N/A   Overcast
11:35 PM 37.4 °F 31.4 °F 28.4 °F 70% 30.17 in 10.0 mi NNE 8.1 mph - N/A   Overcast
11:55 PM 37.4 °F 30.3 °F 28.4 °F 70% 30.18 in 10.0 mi North 10.4 mph - N/A   Mostly Cloudy